Simultaneous Nadir Overpasses (SNOs) Predictions

Prediction of SNOs between GOES-16 and METOP-B Satellite Orbit:

Table of predicted SNOs for the next 14.0 days since TLE Epoch: 11/9/2024
Index Date Time (GOES-16) GOES-16 Lat,Lon METOP-B Lat,Lon Distance(km) Time Diff (sec)
1 11/09/2024 02:27:33 0.03, -75.19 0.00, -77.71 279.39 0
2 11/10/2024 02:07:59 0.03, -75.20 0.58, -72.58 297.76 80
3 11/11/2024 14:26:44 -0.03, -75.23 0.40, -77.13 216.75 80
4 11/12/2024 14:03:19 -0.03, -75.24 -0.73, -72.13 354.90 80
5 11/14/2024 02:24:52 0.03, -75.24 -0.28, -76.71 167.32 80
6 11/15/2024 02:04:06 0.02, -75.25 0.79, -71.69 404.64 80
7 11/16/2024 14:22:49 -0.02, -75.28 0.21, -76.24 108.96 80
8 11/17/2024 13:59:25 -0.02, -75.30 -0.94, -71.23 463.27 80
9 11/19/2024 02:20:56 0.01, -75.30 -0.09, -75.81 57.98 80
10 11/21/2024 14:16:13 -0.00, -75.36 0.01, -75.33 3.47 80
